Hourly Data Report for November 17, 2020

CARBERRY CS
MANITOBA
Current Station Operator: ECCC - MSC

49°54'20.900" N
99°21'26.800" W
383.50 m
5010547
71170
WZE

Download Data

Hourly Data (November 2020)
Hourly Data Report for November 17, 2020
TIME
LST
Temp Definition
°C
Dew Point Definition
°C
Rel Hum Definition
%
Precip. Amount Definition
mm

Wind Dir Definition
10's deg

Wind Spd Definition
km/h
Visibility Definition
km
Stn Press Definition
kPa
Hmdx Definition


Wind Chill Definition


Weather Definition


00:00 -11.5 -12.8 90 0.0 34 6   98.12   -15 LegendNANA
01:00 -11.8 -12.9 92 0.0 29 2   98.17   -13 LegendNANA
02:00 -13.3 -14.8 89 0.0 25 6   98.23   -17 LegendNANA
03:00 -13.0 -14.1 92 0.0   0   98.24     LegendNANA
04:00 -12.0 -13.1 91 0.0 24 2   98.23   -13 LegendNANA
05:00 -10.8 -11.5 94 0.0 23 4   98.22   -13 LegendNANA
06:00 -12.1 -13.4 90 0.0   0   98.25     LegendNANA
07:00 -13.8 -15.7 86 0.0 22 2   98.25   -15 LegendNANA
08:00 -10.7 -11.5 94 0.0   0   98.28     LegendNANA
09:00 -9.5 -10.1 95 0.0 17 5   98.26   -12 LegendNANA
10:00 -8.5 -9.5 92 0.0 11 6   98.28   -12 LegendNANA
11:00 -7.8 -9.6 87 0.0 11 14   98.22   -14 LegendNANA
12:00 -6.9 -9.9 79 0.0 12 19   98.19   -14 LegendNANA
13:00 -6.4 -10.2 75 0.0 13 21   98.10   -13 LegendNANA
14:00 -5.8 -10.0 72 0.0 10 19   98.02   -12 LegendNANA
15:00 -5.8 -9.7 74 0.0 12 20   97.96   -13 LegendNANA
16:00 -5.9 -9.7 75 0.0 11 19   97.86   -13 LegendNANA
17:00 -6.4 -9.8 77 0.0 10 21   97.76   -13 LegendNANA
18:00 -6.7 -9.7 79 0.0 10 21   97.65   -14 LegendNANA
19:00 -6.5 -9.6 79 0.0 11 20   97.56   -13 LegendNANA
20:00 -6.3 -9.4 78 0.0 12 21   97.43   -13 LegendNANA
21:00 -6.4 -9.2 80 0.0 12 16   97.31   -13 LegendNANA
22:00 -6.4 -8.8 83 0.0 11 16   97.22   -13 LegendNANA
23:00 -6.4 -8.5 85 0.0 10 15   97.05   -12 LegendNANA

Notes on Data Quality.

Legend

  • E = Estimated
  • M = Missing
  • NA = Not Available*
  • [empty] = Indicates an unobserved value
Date modified: